OBJECT_NAME,OBJECT_ID,EPOCH,MEAN_MOTION,ECCENTRICITY,INCLINATION,RA_OF_ASC_NODE,ARG_OF_PERICENTER,MEAN_ANOMALY,EPHEMERIS_TYPE,CLASSIFICATION_TYPE,NORAD_CAT_ID,ELEMENT_SET_NO,REV_AT_EPOCH,BSTAR,MEAN_MOTION_DOT,MEAN_MOTION_DDOT SAR-LUPE 2,2007-030A,2026-09-12T06:58:54.400224,15.62030103,.00042885,98.1095,11.4082,170.9819,189.1515,0,U,31797,999,7048,.54947683E-3,.4807E-3,0 SAPPHIRE,2013-009C,2026-09-12T07:19:01.864416,14.35259542,.0011064,98.4311,72.7222,355.9520,4.1575,0,U,39088,999,70907,.2982237E-4,.42E-6,0 PRAETORIAN SDA_602,2025-203A,2026-09-12T03:25:00.347232,13.83892634,.00052916,81.3007,290.2820,329.8477,30.2374,0,U,65565,999,5072,.43780754E-4,.6E-6,0 PRAETORIAN SDA_603,2025-203B,2026-09-12T02:17:07.744128,13.83965879,.00088406,81.3015,290.2441,321.9044,38.1487,0,U,65566,999,5072,.18192378E-3,.214E-5,0 PRAETORIAN SDA_604,2025-203C,2026-09-12T02:22:50.877408,13.83056095,.00049206,81.3031,290.7904,336.1484,23.9443,0,U,65567,999,5069,.37248834E-4,.53E-6,0 PRAETORIAN SDA_605,2025-203D,2026-09-12T03:00:35.101728,13.83133611,.00075042,81.2996,290.3724,323.0817,36.9822,0,U,65568,999,5071,.38012522E-4,.53E-6,0 PRAETORIAN SDA_606,2025-203E,2026-09-12T02:38:21.508224,13.83210914,.00053316,81.3032,290.6461,327.8704,32.2127,0,U,65569,999,5070,.42872292E-4,.59E-6,0 PRAETORIAN SDA_607,2025-203F,2026-09-12T03:34:29.122752,13.83763306,.00080779,81.3013,290.1689,322.0234,38.0351,0,U,65570,999,5073,.17534808E-3,.206E-5,0 PRAETORIAN SDA_608,2025-203G,2026-09-12T03:05:35.584512,13.83824264,.00053553,81.2983,290.3259,333.5519,26.5363,0,U,65571,999,5071,.41278447E-4,.58E-6,0 PRAETORIAN SDA_609,2025-203H,2026-09-12T02:37:14.405664,13.84216384,.00059961,81.3023,290.3123,324.9158,35.1603,0,U,65572,999,5072,.15302262E-3,.182E-5,0 PRAETORIAN SDA_610,2025-203J,2026-09-12T02:57:20.525472,13.83533590,.0006074,81.2987,290.3225,331.2157,28.8664,0,U,65573,999,5071,.41856271E-4,.58E-6,0 PRAETORIAN SDA_611,2025-203K,2026-09-12T03:23:36.127968,13.83315138,.00049816,81.2981,290.5071,340.1054,19.9907,0,U,65574,999,5070,.24060869E-3,.276E-5,0 PRAETORIAN SDA_612,2025-203L,2026-09-12T02:16:24.980448,13.85038950,.00084517,81.3007,289.9221,321.8824,38.1734,0,U,65575,999,5074,.13827117E-3,.168E-5,0 PRAETORIAN SDA_613,2025-203M,2026-09-12T02:38:13.184448,13.82772234,.00049443,81.2977,290.6003,327.3793,32.7057,0,U,65576,999,5069,.42748209E-4,.58E-6,0 PRAETORIAN SDA_614,2025-203N,2026-09-12T02:24:22.706784,13.84783834,.00063414,81.2991,290.0168,321.9939,38.0770,0,U,65577,999,5074,.24407406E-4,.39E-6,0 PRAETORIAN SDA_615,2025-203P,2026-09-12T02:21:55.142496,13.84442553,.00082443,81.3005,290.0362,321.2534,38.8031,0,U,65578,999,5073,.15847447E-3,.189E-5,0 PRAETORIAN SDA_616,2025-203Q,2026-09-12T03:26:07.556928,13.83277151,.0004753,81.3030,290.7080,339.4390,20.6574,0,U,65579,999,5070,.15492709E-3,.182E-5,0 PRAETORIAN SDA_617,2025-203R,2026-09-12T02:23:43.930464,13.83156163,.00066004,81.3015,290.5714,322.6614,37.4083,0,U,65580,999,5070,.39984594E-4,.56E-6,0 PRAETORIAN SDA_618,2025-203S,2026-09-12T03:32:00.926016,13.84228798,.00090631,81.2998,289.9428,323.9174,36.1370,0,U,65581,999,5074,.19274329E-3,.227E-5,0 PRAETORIAN SDA_619,2025-203T,2026-09-12T03:24:47.998080,13.83731336,.0007403,81.3019,290.3327,322.8303,37.2340,0,U,65582,999,5135,.1536532E-3,.182E-5,0 PRAETORIAN SDA_620,2025-203U,2026-09-12T03:04:56.593056,13.83212107,.00066534,81.3010,290.4195,320.3979,39.6690,0,U,65583,999,5071,.17564938E-3,.204E-5,0 PRAETORIAN SDA_621,2025-203V,2026-09-12T03:24:35.637696,13.83808956,.00064984,81.2998,290.2460,316.1364,43.9275,0,U,65584,999,5072,.46104872E-4,.63E-6,0 PRAETORIAN SDA_601,2025-203W,2026-09-12T03:39:40.542912,13.83175191,.00050144,81.3012,290.6333,341.0613,19.0356,0,U,65585,999,5070,.11947668E-3,.143E-5,0 VICTUS HAZE PUMA,2026-142A,2026-09-12T05:58:23.930112,15.21382594,.00149214,97.4526,151.8484,152.7817,207.4204,0,U,69646,999,1290,.14321065E-3,.3149E-4,0